Location: Baumgartsau
(48.4586°N, 14.0864°E)
Time: 15:55:58
(UTC+00:00)

BREEZE M DEB (TANK) - Pass Details

Date: 22 May 2021
Orbit: 296 x 11843 km, 49.5° (Epoch: 14 June)

Event Time Altitude Azimuth Distance (km) Brightness Sun altitude
Rises 23:32:42 0° 295° (WNW) 8,238 8.5 -20.6°
Reaches altitude 10° 23:41:22 10° 278° (W) 8,993 8.4 -20.4°
Maximum altitude 23:59:19 16° 252° (WSW) 11,385 8.6 -19.7°
Drops below altitude 10° 00:29:17 10° 229° (SW) 15,009 9.0 -18.2°
Enters shadow 00:39:23 - 224° (SW) 15,893 9.1 -17.5°
